M I D A S
Marine Information and Data Acquisition System
Tripno 1875 of the Zeeleeuw from 2010-05-05 06:13:49 to 2010-05-05 14:26:35
Back to CruiseResearch ActivitiesStationsMapUnderway DataData graphs

EquipmentUnitsComments
TimeDGPSUTC
LatitudeDGPSDM.mWGS84
LongitudeDGPSDM.mWGS84
SpeedMeteo Stationm/sRelative wind speed
DirectionMeteo StationdegRelative wind direction
TemperatureMeteo Stationdeg CelciusAir temperature
PressureMeteo StationPaAtmospheric pressure
HumidityMeteo Station%Relative humidity
Missing or incorrect values are displayed as -999
Metereological data collected by the RV Zeeleeuw from 2010-05-05 06:17:15 to 2010-05-05 15:24:49
                                                                                    Next 1000 lines
Time Latitude Longitude Speed Direction Temperature Pressure Humidity
2010-05-05 06:17:25 51°13.662 2°55.954 1.4 268 8 102150 31
2010-05-05 06:17:30 51°13.662 2°55.95 2.6 310 8 102150 31
2010-05-05 06:17:35 51°13.663 2°55.946 1.5 267 8 102150 33
2010-05-05 06:17:41 51°13.664 2°55.94 2.1 285 8 102150 33
2010-05-05 06:17:46 51°13.666 2°55.934 1.9 255 8 102150 33
2010-05-05 06:17:52 51°13.668 2°55.925 3.9 313 8 102150 33
2010-05-05 06:17:58 51°13.67 2°55.916 3 269 8 102150 34
2010-05-05 06:18:04 51°13.672 2°55.907 3.3 288 8 102150 34
2010-05-05 06:18:09 51°13.673 2°55.898 2.4 261 8 102150 32
2010-05-05 06:18:14 51°13.675 2°55.89 4.2 55 8 102150 32
2010-05-05 06:18:19 51°13.676 2°55.881 4.4 267 8 102150 33
2010-05-05 06:18:24 51°13.678 2°55.872 4.3 312 8 102150 33
2010-05-05 06:18:29 51°13.68 2°55.863 3.1 262 8 102160 34
2010-05-05 06:18:34 51°13.682 2°55.854 3.3 303 8 102160 34
2010-05-05 06:18:39 51°13.685 2°55.845 4.4 23 8 102150 29
2010-05-05 06:18:44 51°13.687 2°55.836 4.2 313 8 102150 29
2010-05-05 06:18:49 51°13.69 2°55.826 4.8 270 8 102160 32
2010-05-05 06:18:54 51°13.694 2°55.816 4.9 287 8 102160 32
2010-05-05 06:18:59 51°13.697 2°55.806 4.2 23 8 102160 31
2010-05-05 06:19:04 51°13.701 2°55.797 3.4 52 8 102160 31
2010-05-05 06:19:09 51°13.705 2°55.788 3.6 22 8 102150 31
2010-05-05 06:19:14 51°13.71 2°55.779 4.5 73 8 102150 31
2010-05-05 06:19:19 51°13.714 2°55.77 4.9 27 8 102160 33
2010-05-05 06:19:24 51°13.718 2°55.761 5.4 57 8 102160 33
2010-05-05 06:19:29 51°13.722 2°55.752 4.9 22 8 102150 32
2010-05-05 06:19:34 51°13.727 2°55.743 4.8 51 8 102150 32
2010-05-05 06:19:39 51°13.732 2°55.735 5.8 26 8 102160 33
2010-05-05 06:19:44 51°13.737 2°55.726 5.8 58 8 102160 33
2010-05-05 06:19:49 51°13.742 2°55.718 5.4 21 8 102160 33
2010-05-05 06:19:54 51°13.747 2°55.71 4.6 53 8 102160 33
2010-05-05 06:19:59 51°13.753 2°55.702 4.5 26 8 102160 31
2010-05-05 06:20:04 51°13.758 2°55.695 6 82 8 102160 31
2010-05-05 06:20:09 51°13.764 2°55.688 6.3 19 8 102170 31
2010-05-05 06:20:14 51°13.77 2°55.681 5.3 55 8 102170 31
2010-05-05 06:20:19 51°13.777 2°55.675 6.4 20 8 102170 32
2010-05-05 06:20:24 51°13.784 2°55.669 5.6 55 8 102170 32
2010-05-05 06:20:29 51°13.791 2°55.663 8.2 20 8 102160 31
2010-05-05 06:20:34 51°13.798 2°55.658 6.7 51 8 102160 31
2010-05-05 06:20:39 51°13.805 2°55.653 7.4 19 8 102160 33
2010-05-05 06:20:44 51°13.812 2°55.648 7 55 8 102160 33
2010-05-05 06:20:49 51°13.819 2°55.643 5.7 27 8 102170 32
2010-05-05 06:20:54 51°13.826 2°55.638 5.1 53 8 102170 32
2010-05-05 06:20:59 51°13.833 2°55.634 8.1 21 8 102160 32
2010-05-05 06:21:04 51°13.839 2°55.63 5.8 51 8 102160 32
2010-05-05 06:21:09 51°13.846 2°55.626 6.3 21 8 102170 31
2010-05-05 06:21:14 51°13.852 2°55.623 5.2 73 8 102170 31
2010-05-05 06:21:19 51°13.859 2°55.621 4.4 21 8 102160 30
2010-05-05 06:21:24 51°13.865 2°55.619 5.7 53 8 102160 30
2010-05-05 06:21:29 51°13.872 2°55.618 4.9 24 8 102160 31
2010-05-05 06:21:34 51°13.877 2°55.617 4.9 76 8 102160 31
2010-05-05 06:21:39 51°13.883 2°55.616 3.7 25 8 102160 33
2010-05-05 06:21:44 51°13.889 2°55.617 3.4 57 8 102160 33
2010-05-05 06:21:49 51°13.894 2°55.617 3.8 27 8 102170 32
2010-05-05 06:21:54 51°13.899 2°55.619 3.8 49 8 102170 32
2010-05-05 06:21:59 51°13.904 2°55.62 4.4 19 8 102160 33
2010-05-05 06:22:04 51°13.908 2°55.622 4.5 79 8 102160 33
2010-05-05 06:22:09 51°13.912 2°55.625 6.1 21 8.1 102160 34
2010-05-05 06:22:13 51°13.915 2°55.626 5.5 50 8.1 102160 34
2010-05-05 06:22:18 51°13.919 2°55.628 5.4 22 8.1 102160 32
2010-05-05 06:22:24 51°13.923 2°55.631 5.6 76 8.1 102160 32
2010-05-05 06:22:29 51°13.926 2°55.634 6.6 22 8.1 102160 31
2010-05-05 06:22:34 51°13.929 2°55.635 7.1 53 8.1 102160 31
2010-05-05 06:22:39 51°13.931 2°55.637 6.9 24 8.1 102150 32
2010-05-05 06:22:44 51°13.933 2°55.638 5.9 73 8.1 102150 32
2010-05-05 06:22:49 51°13.934 2°55.64 4.6 18 8.1 102160 33
2010-05-05 06:22:54 51°13.935 2°55.641 4.8 52 8.1 102160 33
2010-05-05 06:22:59 51°13.935 2°55.641 3.8 44 8.1 102150 33
2010-05-05 06:23:04 51°13.935 2°55.642 4.6 55 8.1 102150 33
2010-05-05 06:23:09 51°13.935 2°55.642 4.3 26 8.1 102150 33
2010-05-05 06:23:14 51°13.935 2°55.642 5 40 8.1 102150 33
2010-05-05 06:23:19 51°13.935 2°55.642 4.4 44 8.1 102160 31
2010-05-05 06:23:24 51°13.935 2°55.641 4.7 40 8.1 102160 31
2010-05-05 06:23:29 51°13.934 2°55.64 5.4 35 8.1 102150 31
2010-05-05 06:23:34 51°13.934 2°55.638 5.2 37 8.1 102150 31
2010-05-05 06:23:39 51°13.933 2°55.636 4.6 33 8.1 102150 31
2010-05-05 06:23:44 51°13.932 2°55.634 4.7 33 8.1 102150 31
2010-05-05 06:23:49 51°13.932 2°55.632 5.4 33 8 102150 31
2010-05-05 06:23:54 51°13.932 2°55.631 5.1 32 8 102150 31
2010-05-05 06:23:59 51°13.931 2°55.63 4.3 34 8 102150 32
2010-05-05 06:24:04 51°13.931 2°55.63 6.1 34 8 102150 32
2010-05-05 06:24:09 51°13.93 2°55.632 6.6 36 8 102150 33
2010-05-05 06:24:14 51°13.93 2°55.634 4.6 30 8 102150 33
2010-05-05 06:24:19 51°13.93 2°55.636 4.9 33 8 102150 32
2010-05-05 06:24:23 51°13.93 2°55.638 5.6 32 8 102150 32
2010-05-05 06:24:28 51°13.93 2°55.639 5.4 28 8 102150 32
2010-05-05 06:24:33 51°13.93 2°55.64 4.4 29 8 102150 32
2010-05-05 06:24:39 51°13.929 2°55.638 4 25 8 102150 33
2010-05-05 06:24:44 51°13.929 2°55.635 4.4 25 8 102150 33
2010-05-05 06:24:49 51°13.928 2°55.631 4.1 19 8 102150 33
2010-05-05 06:24:54 51°13.928 2°55.627 4.3 13 8 102150 33
2010-05-05 06:24:59 51°13.928 2°55.624 5.3 12 8 102150 32
2010-05-05 06:25:03 51°13.929 2°55.62 4.6 20 8 102150 32
2010-05-05 06:25:08 51°13.929 2°55.617 4.7 21 8 102150 33
2010-05-05 06:25:13 51°13.929 2°55.614 4 4 8 102150 33
2010-05-05 06:25:18 51°13.93 2°55.612 4.9 8 8 102150 33
2010-05-05 06:25:24 51°13.931 2°55.608 4.4 13 8 102150 33
2010-05-05 06:25:29 51°13.931 2°55.605 4.5 19 8 102150 32
2010-05-05 06:25:33 51°13.932 2°55.603 4.2 6 8 102150 32
2010-05-05 06:25:38 51°13.933 2°55.6 4 13 8 102160 33
2010-05-05 06:25:43 51°13.934 2°55.597 4.1 1 8 102160 33
2010-05-05 06:25:47 51°13.934 2°55.595 3.6 9 8 102150 31
2010-05-05 06:25:52 51°13.935 2°55.592 5 9 8 102150 31
2010-05-05 06:25:57 51°13.936 2°55.59 4.6 4 8 102150 33
2010-05-05 06:26:04 51°13.937 2°55.589 4.1 -999 8 102150 33
2010-05-05 06:26:09 51°13.936 2°55.589 5.2 7 8 102160 33
2010-05-05 06:26:13 51°13.936 2°55.589 3.9 357 8 102160 33
2010-05-05 06:26:18 51°13.935 2°55.59 4.3 6 8 102150 33
2010-05-05 06:26:24 51°13.933 2°55.591 5.8 356 8 102150 33
2010-05-05 06:26:29 51°13.932 2°55.592 4.4 4 8 102160 32
2010-05-05 06:26:34 51°13.93 2°55.593 3.5 8 8 102160 32
2010-05-05 06:26:39 51°13.929 2°55.594 3.3 7 8 102150 31
2010-05-05 06:26:44 51°13.928 2°55.595 3.4 9 8 102150 31
2010-05-05 06:26:49 51°13.928 2°55.596 3.4 18 8 102160 33
2010-05-05 06:26:54 51°13.927 2°55.596 3.5 7 8 102160 33
2010-05-05 06:26:58 51°13.927 2°55.596 4 3 8 102150 33
2010-05-05 06:27:04 51°13.927 2°55.596 4.1 359 8 102150 33
2010-05-05 06:27:09 51°13.927 2°55.595 5.1 1 8 102150 33
2010-05-05 06:27:13 51°13.927 2°55.595 4.2 359 8 102150 33
2010-05-05 06:27:18 51°13.928 2°55.594 4.1 2 8 102150 33
2010-05-05 06:27:24 51°13.929 2°55.592 3.7 2 8 102150 33
2010-05-05 06:27:28 51°13.93 2°55.59 4.3 356 8 102150 32
2010-05-05 06:27:33 51°13.933 2°55.588 4.8 350 8 102150 32
2010-05-05 06:27:38 51°13.935 2°55.586 5.6 348 8 102150 32
2010-05-05 06:27:44 51°13.938 2°55.583 4.6 352 8 102150 32
2010-05-05 06:27:49 51°13.941 2°55.581 4.7 348 8 102150 34
2010-05-05 06:27:53 51°13.944 2°55.579 5 280 8 102150 34
2010-05-05 06:27:58 51°13.946 2°55.577 4.7 347 8 102150 32
2010-05-05 06:28:04 51°13.95 2°55.575 5.3 279 8 102150 32
2010-05-05 06:28:09 51°13.953 2°55.574 4.4 348 8 102150 32
2010-05-05 06:28:13 51°13.955 2°55.572 5 349 8 102150 32
2010-05-05 06:28:18 51°13.958 2°55.571 4.1 347 8 102150 31
2010-05-05 06:28:23 51°13.961 2°55.57 4.1 349 8 102150 31
2010-05-05 06:28:28 51°13.963 2°55.569 3.5 343 8 102150 32
2010-05-05 06:28:33 51°13.966 2°55.568 3.6 285 8 102150 32
2010-05-05 06:28:37 51°13.968 2°55.567 3.7 340 8 102150 31
2010-05-05 06:28:42 51°13.97 2°55.566 4.7 340 8 102150 31
2010-05-05 06:28:47 51°13.973 2°55.565 3.3 339 8 102150 32
2010-05-05 06:28:52 51°13.975 2°55.565 4 335 8 102150 32
2010-05-05 06:28:57 51°13.977 2°55.564 4.1 337 8 102150 32
2010-05-05 06:29:02 51°13.978 2°55.564 4.1 286 8 102150 32
2010-05-05 06:29:07 51°13.979 2°55.564 4.4 341 8 102150 32
2010-05-05 06:29:12 51°13.979 2°55.565 3.3 340 8 102150 32
2010-05-05 06:29:17 51°13.979 2°55.565 2.9 342 8.1 102150 32
2010-05-05 06:29:22 51°13.978 2°55.566 2.3 346 8.1 102150 32
2010-05-05 06:29:27 51°13.978 2°55.566 2.6 351 8 102150 32
2010-05-05 06:29:32 51°13.977 2°55.566 2.4 343 8 102150 32
2010-05-05 06:29:37 51°13.976 2°55.567 2 358 8.1 102150 32
2010-05-05 06:29:42 51°13.976 2°55.568 3.3 354 8.1 102150 32
2010-05-05 06:29:47 51°13.976 2°55.568 2.5 351 8.1 102150 32
2010-05-05 06:29:53 51°13.975 2°55.569 2.3 347 8.1 102150 32
2010-05-05 06:29:57 51°13.975 2°55.569 2.8 345 8.1 102150 33
2010-05-05 06:30:03 51°13.974 2°55.569 2.7 354 8.1 102150 33
2010-05-05 06:30:09 51°13.974 2°55.569 2.8 353 8.1 102150 33
2010-05-05 06:30:13 51°13.973 2°55.569 2.8 353 8.1 102150 33
2010-05-05 06:30:19 51°13.973 2°55.569 4.4 341 8.1 102150 34
2010-05-05 06:30:24 51°13.972 2°55.569 2.5 349 8.1 102150 34
2010-05-05 06:30:29 51°13.972 2°55.569 2.5 347 8.1 102150 32
2010-05-05 06:30:33 51°13.972 2°55.569 2.4 356 8.1 102150 32
2010-05-05 06:30:39 51°13.972 2°55.569 3.6 344 8.1 102150 32
2010-05-05 06:30:44 51°13.971 2°55.569 3.8 348 8.1 102150 32
2010-05-05 06:30:49 51°13.971 2°55.57 3.3 5 8.1 102150 34
2010-05-05 06:30:53 51°13.97 2°55.571 2.4 353 8.1 102150 34
2010-05-05 06:30:58 51°13.968 2°55.572 1.8 358 8.1 102150 33
2010-05-05 06:31:04 51°13.965 2°55.574 2.4 3 8.1 102150 33
2010-05-05 06:31:09 51°13.963 2°55.576 1.9 355 8.2 102150 32
2010-05-05 06:31:13 51°13.961 2°55.577 3 14 8.2 102150 32
2010-05-05 06:31:19 51°13.959 2°55.579 3.4 6 8.2 102150 32
2010-05-05 06:31:24 51°13.956 2°55.581 3.5 18 8.2 102150 32
2010-05-05 06:31:29 51°13.954 2°55.583 3.6 1 8.2 102150 34
2010-05-05 06:31:34 51°13.952 2°55.584 3.5 1 8.2 102150 34
2010-05-05 06:31:38 51°13.95 2°55.586 3.6 9 8.2 102150 32
2010-05-05 06:31:44 51°13.948 2°55.588 4.1 8 8.2 102150 32
2010-05-05 06:31:49 51°13.946 2°55.59 4.3 10 8.2 102150 32
2010-05-05 06:31:54 51°13.944 2°55.592 3.3 9 8.2 102150 32
2010-05-05 06:31:59 51°13.942 2°55.594 4.8 13 8.1 102150 30
2010-05-05 06:32:04 51°13.94 2°55.596 4.3 6 8.1 102150 30
2010-05-05 06:32:09 51°13.938 2°55.598 4.4 8 8.1 102150 31
2010-05-05 06:32:13 51°13.936 2°55.599 4.8 10 8.1 102150 31
2010-05-05 06:32:19 51°13.933 2°55.602 4.2 7 8.1 102150 33
2010-05-05 06:32:24 51°13.931 2°55.604 4.2 6 8.1 102150 33
2010-05-05 06:32:29 51°13.929 2°55.606 4.4 7 8 102140 32
2010-05-05 06:32:34 51°13.927 2°55.608 3.8 7 8 102140 32
2010-05-05 06:32:39 51°13.924 2°55.61 4.3 11 8 102140 33
2010-05-05 06:32:44 51°13.922 2°55.612 4.1 6 8 102140 33
2010-05-05 06:32:49 51°13.92 2°55.614 3.1 3 8 102150 33
2010-05-05 06:32:54 51°13.919 2°55.615 4.3 8 8 102150 33
2010-05-05 06:32:58 51°13.918 2°55.615 4 5 8 102150 33
2010-05-05 06:33:04 51°13.917 2°55.616 3.9 6 8 102150 33
2010-05-05 06:33:09 51°13.917 2°55.615 4.3 4 8 102150 31
2010-05-05 06:33:14 51°13.916 2°55.615 4.4 6 8 102150 31
2010-05-05 06:33:19 51°13.916 2°55.614 4.7 4 8 102150 32
2010-05-05 06:33:24 51°13.915 2°55.614 4 5 8 102150 32
2010-05-05 06:33:29 51°13.914 2°55.614 3.8 3 8 102140 33
2010-05-05 06:33:34 51°13.914 2°55.614 4.1 8 8 102140 33
2010-05-05 06:33:39 51°13.913 2°55.614 3.5 7 8 102140 33
2010-05-05 06:33:44 51°13.912 2°55.614 2.9 4 8 102140 33
2010-05-05 06:33:49 51°13.911 2°55.614 3.6 7 8 102140 33
2010-05-05 06:33:54 51°13.911 2°55.614 3.8 2 8 102140 33
2010-05-05 06:33:58 51°13.91 2°55.615 3.5 9 8 102150 32
2010-05-05 06:34:04 51°13.908 2°55.617 3.3 9 8 102150 32
2010-05-05 06:34:09 51°13.907 2°55.618 4.3 12 8 102140 32
2010-05-05 06:34:14 51°13.906 2°55.619 3.7 16 8 102140 32
2010-05-05 06:34:19 51°13.904 2°55.62 3.6 15 8 102140 32
2010-05-05 06:34:24 51°13.903 2°55.621 4.5 13 8 102140 32
2010-05-05 06:34:29 51°13.902 2°55.623 4.4 12 8 102150 32
2010-05-05 06:34:33 51°13.901 2°55.624 4.7 18 8 102150 32
2010-05-05 06:34:39 51°13.899 2°55.627 4.7 23 8.1 102140 31
2010-05-05 06:34:44 51°13.899 2°55.629 4.6 21 8.1 102140 31
2010-05-05 06:34:49 51°13.898 2°55.63 5.2 14 8 102140 32
2010-05-05 06:34:53 51°13.897 2°55.631 5.6 15 8 102140 32
2010-05-05 06:34:59 51°13.897 2°55.633 5.1 11 8 102140 34
2010-05-05 06:35:04 51°13.896 2°55.633 5.4 13 8 102140 34
2010-05-05 06:35:09 51°13.896 2°55.633 5.8 13 8 102150 32
2010-05-05 06:35:13 51°13.896 2°55.632 6.5 9 8 102150 32
2010-05-05 06:35:19 51°13.896 2°55.631 6.2 8 8 102140 32
2010-05-05 06:35:24 51°13.897 2°55.629 5.4 7 8 102140 32
2010-05-05 06:35:29 51°13.897 2°55.628 5.1 8 8 102140 32
2010-05-05 06:35:33 51°13.898 2°55.626 4.7 6 8 102140 32
2010-05-05 06:35:39 51°13.899 2°55.623 4.5 1 8 102140 33
2010-05-05 06:35:44 51°13.9 2°55.62 5.2 359 8 102140 33
2010-05-05 06:35:49 51°13.902 2°55.617 5.3 356 8 102140 33
2010-05-05 06:35:54 51°13.904 2°55.614 5.4 357 8 102140 33
2010-05-05 06:35:59 51°13.906 2°55.611 5.3 355 8 102140 33
2010-05-05 06:36:04 51°13.909 2°55.608 5.6 353 8 102140 33
2010-05-05 06:36:09 51°13.912 2°55.605 5.7 357 7.9 102140 31
2010-05-05 06:36:14 51°13.915 2°55.601 5.9 352 7.9 102140 31
2010-05-05 06:36:19 51°13.918 2°55.598 5.9 348 7.9 102140 31
2010-05-05 06:36:24 51°13.922 2°55.594 5.7 352 7.9 102140 31
2010-05-05 06:36:29 51°13.926 2°55.59 6.9 355 7.9 102140 32
2010-05-05 06:36:34 51°13.931 2°55.587 6.9 356 7.9 102140 32
2010-05-05 06:36:39 51°13.935 2°55.582 5.4 355 7.9 102140 31
2010-05-05 06:36:44 51°13.939 2°55.577 4.8 357 7.9 102140 31
2010-05-05 06:36:49 51°13.944 2°55.573 5 351 7.9 102140 32
2010-05-05 06:36:53 51°13.948 2°55.57 5 353 7.9 102140 32
2010-05-05 06:36:58 51°13.953 2°55.565 5.5 347 8 102130 32
2010-05-05 06:37:03 51°13.958 2°55.561 5.9 279 8 102130 32
2010-05-05 06:37:09 51°13.964 2°55.556 4.5 350 8 102140 32
2010-05-05 06:37:13 51°13.968 2°55.553 5.9 350 8 102140 32
2010-05-05 06:37:19 51°13.974 2°55.548 6.4 347 8 102140 31
2010-05-05 06:37:24 51°13.979 2°55.544 4.8 348 8 102140 31
2010-05-05 06:37:29 51°13.984 2°55.54 4.3 349 8 102140 33
2010-05-05 06:37:34 51°13.989 2°55.536 5.1 344 8 102140 33
2010-05-05 06:37:39 51°13.994 2°55.532 4.9 346 8 102140 33
2010-05-05 06:37:44 51°13.999 2°55.529 4.7 352 8 102140 33
2010-05-05 06:37:49 51°14.004 2°55.525 6 350 8 102140 32
2010-05-05 06:37:54 51°14.009 2°55.521 5.7 354 8 102140 32
2010-05-05 06:37:58 51°14.013 2°55.518 5.1 351 8 102150 32
2010-05-05 06:38:04 51°14.019 2°55.513 4.4 354 8 102150 32
2010-05-05 06:38:09 51°14.023 2°55.509 4.9 354 8 102140 32
2010-05-05 06:38:13 51°14.027 2°55.506 6.5 349 8 102140 32
2010-05-05 06:38:18 51°14.032 2°55.502 5.5 346 8 102140 33
2010-05-05 06:38:23 51°14.037 2°55.498 4.5 351 8 102140 33
2010-05-05 06:38:28 51°14.042 2°55.494 5.9 347 8 102140 33
2010-05-05 06:38:33 51°14.047 2°55.49 5.8 346 8 102140 33
2010-05-05 06:38:38 51°14.051 2°55.486 5.6 349 8 102140 32
2010-05-05 06:38:43 51°14.056 2°55.482 4.5 346 8 102140 32
2010-05-05 06:38:48 51°14.061 2°55.478 4.8 343 8 102140 33
2010-05-05 06:38:53 51°14.066 2°55.474 6.3 345 8 102140 33
2010-05-05 06:38:57 51°14.07 2°55.471 7.1 349 8 102140 32
2010-05-05 06:39:02 51°14.074 2°55.467 5 286 8 102140 32
2010-05-05 06:39:07 51°14.079 2°55.463 4.8 349 8 102140 32
2010-05-05 06:39:12 51°14.084 2°55.459 6 349 8 102140 32
2010-05-05 06:39:17 51°14.089 2°55.455 5.3 351 8 102140 33
2010-05-05 06:39:21 51°14.093 2°55.452 5.1 354 8 102140 33
2010-05-05 06:39:26 51°14.098 2°55.449 4.5 346 8 102140 32
2010-05-05 06:39:31 51°14.103 2°55.445 4.3 350 8 102140 32
2010-05-05 06:39:36 51°14.108 2°55.441 4.7 351 7.9 102140 32
2010-05-05 06:39:41 51°14.113 2°55.437 5 351 7.9 102140 32
2010-05-05 06:39:46 51°14.118 2°55.434 4.5 350 7.9 102140 31
2010-05-05 06:39:51 51°14.124 2°55.43 5.2 350 7.9 102140 31
2010-05-05 06:39:55 51°14.128 2°55.427 5.7 350 7.9 102150 31
2010-05-05 06:40:00 51°14.133 2°55.423 6.1 348 7.9 102150 31
2010-05-05 06:40:05 51°14.138 2°55.419 5.1 350 7.9 102150 31
2010-05-05 06:40:10 51°14.143 2°55.414 4.8 350 7.9 102150 31
2010-05-05 06:40:15 51°14.149 2°55.41 4.3 353 8 102150 31
2010-05-05 06:40:20 51°14.154 2°55.406 4.5 348 8 102150 31
2010-05-05 06:40:25 51°14.16 2°55.401 4.6 349 8 102140 32
2010-05-05 06:40:30 51°14.166 2°55.397 6.7 348 8 102140 32
2010-05-05 06:40:35 51°14.172 2°55.392 7.1 350 8 102140 33
2010-05-05 06:40:40 51°14.177 2°55.387 6.9 350 8 102140 33
2010-05-05 06:40:45 51°14.183 2°55.381 6.3 351 8.1 102150 34
2010-05-05 06:40:50 51°14.189 2°55.375 8.5 351 8.1 102150 34
2010-05-05 06:40:56 51°14.196 2°55.367 7.4 351 8.1 102150 32
2010-05-05 06:41:01 51°14.202 2°55.36 7.4 351 8.1 102150 32
2010-05-05 06:41:05 51°14.207 2°55.355 7.7 353 8.1 102140 32
2010-05-05 06:41:11 51°14.214 2°55.346 7.4 352 8.1 102140 32
2010-05-05 06:41:16 51°14.22 2°55.339 7.1 352 8.1 102140 32
2010-05-05 06:41:21 51°14.227 2°55.332 6.4 354 8.1 102140 32
2010-05-05 06:41:25 51°14.232 2°55.326 7.9 353 8 102130 32
2010-05-05 06:41:30 51°14.238 2°55.318 6.7 349 8 102130 32
2010-05-05 06:41:35 51°14.245 2°55.311 7.1 348 8 102130 32
2010-05-05 06:41:41 51°14.254 2°55.301 8.5 349 8 102130 32
2010-05-05 06:41:46 51°14.262 2°55.292 8.2 349 8 102130 33
2010-05-05 06:41:51 51°14.27 2°55.283 9.1 347 8 102130 33
2010-05-05 06:41:56 51°14.279 2°55.272 8.7 348 8 102130 33
2010-05-05 06:42:01 51°14.288 2°55.262 8.7 348 8 102130 33
2010-05-05 06:42:06 51°14.298 2°55.252 8.4 352 8 102140 33
2010-05-05 06:42:11 51°14.308 2°55.241 8.6 349 8 102140 33
2010-05-05 06:42:16 51°14.319 2°55.23 8.7 348 8 102120 33
2010-05-05 06:42:21 51°14.33 2°55.218 8.3 349 8 102120 33
2010-05-05 06:42:25 51°14.339 2°55.209 8.8 347 8 102120 32
2010-05-05 06:42:30 51°14.35 2°55.197 9.3 348 8 102120 32
2010-05-05 06:42:35 51°14.362 2°55.185 9.5 348 8 102130 32
2010-05-05 06:42:40 51°14.374 2°55.172 9 348 8 102130 32
2010-05-05 06:42:45 51°14.386 2°55.159 9.5 348 8 102130 33
2010-05-05 06:42:49 51°14.396 2°55.148 9.9 346 8 102130 33
2010-05-05 06:42:55 51°14.412 2°55.132 9.6 346 8 102120 32
2010-05-05 06:43:00 51°14.425 2°55.12 8.6 280 8 102120 32
2010-05-05 06:43:05 51°14.438 2°55.106 9.2 346 8 102130 32
2010-05-05 06:43:10 51°14.451 2°55.092 9.1 350 8 102130 32
2010-05-05 06:43:15 51°14.464 2°55.078 9.5 349 8 102130 32
2010-05-05 06:43:20 51°14.478 2°55.062 9.7 349 8 102130 32
2010-05-05 06:43:25 51°14.491 2°55.046 9.2 350 8 102130 33
2010-05-05 06:43:30 51°14.505 2°55.03 8.9 350 8 102130 33
2010-05-05 06:43:35 51°14.519 2°55.013 9.2 347 8 102130 32
2010-05-05 06:43:40 51°14.533 2°54.998 9.7 349 8 102130 32
2010-05-05 06:43:45 51°14.548 2°54.982 9.8 348 8 102130 33
2010-05-05 06:43:50 51°14.564 2°54.967 9.7 280 8 102130 33
2010-05-05 06:43:55 51°14.58 2°54.951 9.9 346 8 102130 32
2010-05-05 06:44:00 51°14.596 2°54.935 9.1 350 8 102130 32
2010-05-05 06:44:05 51°14.612 2°54.92 9.8 348 8 102130 32
2010-05-05 06:44:10 51°14.628 2°54.904 9.9 348 8 102130 32
2010-05-05 06:44:15 51°14.645 2°54.889 10 347 8 102130 32
2010-05-05 06:44:21 51°14.664 2°54.871 10 349 8 102130 32
2010-05-05 06:44:25 51°14.678 2°54.858 10.8 348 8 102130 32
2010-05-05 06:44:30 51°14.694 2°54.843 10.4 347 8 102130 32
2010-05-05 06:44:35 51°14.71 2°54.827 9.7 349 8 102120 33
2010-05-05 06:44:41 51°14.73 2°54.807 10.1 349 8 102120 33
2010-05-05 06:44:45 51°14.742 2°54.794 9.5 350 8 102120 33
2010-05-05 06:44:50 51°14.759 2°54.778 10.2 347 8 102120 33
2010-05-05 06:44:55 51°14.774 2°54.761 10 350 8 102130 32
2010-05-05 06:45:00 51°14.79 2°54.745 9.5 349 8 102130 32
2010-05-05 06:45:05 51°14.805 2°54.727 10.1 350 8 102120 33
2010-05-05 06:45:09 51°14.818 2°54.714 9.3 350 8 102120 33
2010-05-05 06:45:15 51°14.836 2°54.694 9.9 349 8.1 102130 32
2010-05-05 06:45:20 51°14.852 2°54.677 9.8 350 8.1 102130 32
2010-05-05 06:45:25 51°14.868 2°54.66 9 350 8 102130 32
2010-05-05 06:45:30 51°14.884 2°54.644 10.1 279 8 102130 32
2010-05-05 06:45:36 51°14.903 2°54.624 10.1 348 8.1 102130 33
2010-05-05 06:45:41 51°14.918 2°54.607 9.8 349 8.1 102130 33
2010-05-05 06:45:46 51°14.934 2°54.59 9.9 349 8.1 102120 32
2010-05-05 06:45:51 51°14.949 2°54.574 9 348 8.1 102120 32
2010-05-05 06:45:56 51°14.965 2°54.557 10 348 8 102130 32
2010-05-05 06:46:01 51°14.98 2°54.54 9.6 284 8 102130 32
2010-05-05 06:46:05 51°14.992 2°54.527 8.8 346 8 102130 33
2010-05-05 06:46:10 51°15.007 2°54.51 10 348 8 102130 33
2010-05-05 06:46:16 51°15.026 2°54.49 9.5 348 8 102130 32
2010-05-05 06:46:21 51°15.042 2°54.473 8.9 347 8 102130 32
2010-05-05 06:46:25 51°15.055 2°54.461 9.5 348 8 102140 33
2010-05-05 06:46:29 51°15.068 2°54.448 10.3 347 8 102140 33
2010-05-05 06:46:35 51°15.087 2°54.428 10.4 349 8 102130 33
2010-05-05 06:46:40 51°15.102 2°54.411 9.6 348 8 102130 33
2010-05-05 06:46:45 51°15.117 2°54.394 9.5 350 8.1 102130 32
2010-05-05 06:46:50 51°15.133 2°54.376 10.3 349 8.1 102130 32
2010-05-05 06:46:55 51°15.147 2°54.357 9.6 350 8.1 102130 33
2010-05-05 06:47:00 51°15.162 2°54.339 9.2 -999 8.1 102130 33
2010-05-05 06:47:05 51°15.177 2°54.321 9.4 350 8.1 102120 33
2010-05-05 06:47:09 51°15.189 2°54.306 9.6 348 8.1 102120 33
2010-05-05 06:47:15 51°15.206 2°54.283 9.4 350 8 102120 32
2010-05-05 06:47:20 51°15.221 2°54.264 9.8 351 8 102120 32
2010-05-05 06:47:25 51°15.236 2°54.246 9.8 348 8.1 102130 32
2010-05-05 06:47:30 51°15.25 2°54.227 9.4 349 8.1 102130 32
2010-05-05 06:47:35 51°15.266 2°54.209 9.5 349 8.1 102130 33
2010-05-05 06:47:41 51°15.283 2°54.187 8.8 278 8.1 102130 33
2010-05-05 06:47:45 51°15.296 2°54.173 8.9 349 8.1 102130 33
2010-05-05 06:47:50 51°15.311 2°54.155 9.3 351 8.1 102130 33
2010-05-05 06:47:56 51°15.329 2°54.134 10 351 8.1 102140 31
2010-05-05 06:48:01 51°15.344 2°54.117 8.7 350 8.1 102140 31
2010-05-05 06:48:05 51°15.357 2°54.102 9 350 8.1 102140 33
2010-05-05 06:48:10 51°15.372 2°54.085 9 352 8.1 102140 33
2010-05-05 06:48:15 51°15.387 2°54.067 9.1 352 8 102130 32
2010-05-05 06:48:20 51°15.402 2°54.049 8.9 351 8 102130 32
2010-05-05 06:48:25 51°15.418 2°54.031 8.5 351 8 102140 32
2010-05-05 06:48:30 51°15.433 2°54.014 8.8 349 8 102140 32
2010-05-05 06:48:35 51°15.449 2°53.996 9 350 8 102130 33
2010-05-05 06:48:40 51°15.464 2°53.978 9.3 349 8 102130 33
2010-05-05 06:48:45 51°15.479 2°53.961 9.2 350 8 102130 32
2010-05-05 06:48:50 51°15.494 2°53.943 9.2 349 8 102130 32
2010-05-05 06:48:55 51°15.509 2°53.925 9 348 8 102150 33
2010-05-05 06:49:01 51°15.527 2°53.903 9.3 350 8 102150 33
2010-05-05 06:49:05 51°15.54 2°53.89 8.7 349 8 102130 33
2010-05-05 06:49:10 51°15.555 2°53.871 9.9 349 8 102130 33
2010-05-05 06:49:15 51°15.57 2°53.854 9.4 347 8 102140 33
2010-05-05 06:49:20 51°15.585 2°53.835 8.9 349 8 102140 33
2010-05-05 06:49:25 51°15.6 2°53.817 9 349 8 102140 32
2010-05-05 06:49:30 51°15.614 2°53.798 9.4 350 8 102140 32
2010-05-05 06:49:35 51°15.629 2°53.779 9.4 351 8 102130 33
2010-05-05 06:49:40 51°15.643 2°53.76 9 351 8 102130 33
2010-05-05 06:49:45 51°15.658 2°53.741 8.8 351 8 102120 32
2010-05-05 06:49:50 51°15.672 2°53.721 8.9 350 8 102120 32
2010-05-05 06:49:55 51°15.687 2°53.702 9.7 349 8 102140 32
2010-05-05 06:50:00 51°15.701 2°53.682 8.9 281 8 102140 32
2010-05-05 06:50:05 51°15.716 2°53.663 9.8 347 8 102130 32
2010-05-05 06:50:10 51°15.73 2°53.644 10.3 281 8 102130 32
2010-05-05 06:50:15 51°15.745 2°53.625 9.9 348 8 102140 33
2010-05-05 06:50:21 51°15.762 2°53.603 10.1 349 8 102140 33
2010-05-05 06:50:25 51°15.774 2°53.588 8.9 349 8 102130 33
2010-05-05 06:50:30 51°15.789 2°53.57 10.2 350 8 102130 33
2010-05-05 06:50:35 51°15.804 2°53.552 9.6 347 8 102140 31
2010-05-05 06:50:41 51°15.822 2°53.531 9.3 348 8 102140 31
2010-05-05 06:50:45 51°15.834 2°53.517 9.8 347 8 102130 33
2010-05-05 06:50:50 51°15.85 2°53.5 10 347 8 102130 33
2010-05-05 06:50:55 51°15.866 2°53.483 10.5 347 8 102140 33
2010-05-05 06:51:01 51°15.885 2°53.464 10.2 284 8 102140 33
2010-05-05 06:51:05 51°15.897 2°53.451 10.5 346 8 102130 32
2010-05-05 06:51:09 51°15.91 2°53.439 9.7 346 8 102130 32
2010-05-05 06:51:15 51°15.929 2°53.42 10.1 346 8 102130 32
2010-05-05 06:51:20 51°15.946 2°53.405 9.8 283 8 102130 32
2010-05-05 06:51:25 51°15.962 2°53.39 9.2 347 8 102130 32
2010-05-05 06:51:30 51°15.978 2°53.375 10.1 281 8 102130 32
2010-05-05 06:51:35 51°15.995 2°53.361 9.6 346 8 102130 33
2010-05-05 06:51:40 51°16.011 2°53.346 9.5 347 8 102130 33
2010-05-05 06:51:45 51°16.028 2°53.332 10.3 346 8 102130 32
2010-05-05 06:51:49 51°16.041 2°53.32 10.4 345 8 102130 32
2010-05-05 06:51:55 51°16.061 2°53.303 8.6 347 8 102130 33
2010-05-05 06:52:00 51°16.077 2°53.289 9 350 8 102130 33
2010-05-05 06:52:05 51°16.094 2°53.275 9.6 345 8 102130 32
2010-05-05 06:52:10 51°16.11 2°53.261 9 345 8 102130 32
2010-05-05 06:52:15 51°16.127 2°53.247 9.3 345 8 102130 33
2010-05-05 06:52:21 51°16.146 2°53.23 10.1 282 8 102130 33
2010-05-05 06:52:25 51°16.16 2°53.219 9.2 346 8 102120 33
2010-05-05 06:52:29 51°16.173 2°53.208 10.6 346 8 102120 33
2010-05-05 06:52:35 51°16.193 2°53.191 9.7 346 8 102140 32
2010-05-05 06:52:40 51°16.209 2°53.177 10.5 345 8 102140 32
2010-05-05 06:52:45 51°16.226 2°53.163 9.8 346 8 102140 32
2010-05-05 06:53:43 51°16.422 2°53.008 10.3 343 8 102130 32
2010-05-05 06:53:48 51°16.44 2°52.997 10.1 344 8 102130 32
2010-05-05 06:54:09 51°16.516 2°52.956 11 342 8 102130 32
2010-05-05 06:54:32 51°16.6 2°52.914 10.3 345 8 102140 32
2010-05-05 06:54:33 51°16.604 2°52.912 10.3 345 8 102140 32
2010-05-05 06:54:59 51°16.7 2°52.875 10.5 345 8 102130 33
2010-05-05 06:55:17 51°16.767 2°52.851 10.1 343 8 102120 32
2010-05-05 06:56:39 51°17.076 2°52.739 9.2 286 8 102130 33
2010-05-05 06:56:45 51°17.098 2°52.73 10.7 342 8 102140 33
2010-05-05 06:56:49 51°17.113 2°52.724 10 283 8 102140 33
2010-05-05 06:56:54 51°17.132 2°52.716 10 341 8 102140 33
2010-05-05 06:56:59 51°17.151 2°52.709 9.8 285 8 102130 33
2010-05-05 06:57:05 51°17.174 2°52.7 11.1 343 8 102130 33
2010-05-05 06:57:09 51°17.189 2°52.694 10.4 280 8.1 102130 33
2010-05-05 06:57:14 51°17.208 2°52.686 11.7 344 8.1 102130 33
2010-05-05 06:57:19 51°17.227 2°52.679 10.4 285 8 102130 32
2010-05-05 06:57:24 51°17.246 2°52.672 10.6 344 8.1 102130 33
2010-05-05 06:57:29 51°17.265 2°52.665 10.9 281 8.1 102130 33
2010-05-05 06:57:34 51°17.283 2°52.658 11.2 344 8.1 102130 33
2010-05-05 06:57:39 51°17.302 2°52.65 11.5 282 8.1 102120 32
2010-05-05 06:57:44 51°17.321 2°52.643 10.2 347 8.1 102120 32
2010-05-05 06:57:49 51°17.34 2°52.635 11.5 283 8 102130 33
2010-05-05 06:57:54 51°17.358 2°52.629 11.7 346 8 102120 33
2010-05-05 06:57:59 51°17.377 2°52.621 10.2 279 8 102120 33
2010-05-05 06:58:04 51°17.396 2°52.613 10.3 346 8 102120 33
2010-05-05 06:58:09 51°17.414 2°52.606 10.4 282 8 102120 32
2010-05-05 06:58:14 51°17.433 2°52.598 11 346 8 102120 32
2010-05-05 06:58:19 51°17.451 2°52.591 10.7 283 8 102120 32
2010-05-05 06:58:25 51°17.474 2°52.582 10.9 343 8 102120 32
2010-05-05 06:58:29 51°17.489 2°52.576 10.5 279 8 102120 33
2010-05-05 06:58:34 51°17.507 2°52.569 10.6 342 8 102120 33
2010-05-05 06:58:39 51°17.526 2°52.562 10.4 284 8 102110 31
2010-05-05 06:58:44 51°17.544 2°52.554 9.9 342 8 102130 33
2010-05-05 06:58:49 51°17.563 2°52.547 10.4 283 8 102130 33
2010-05-05 06:58:54 51°17.582 2°52.541 10.1 342 8 102130 33
2010-05-05 06:58:59 51°17.601 2°52.534 10.4 287 8 102130 32
2010-05-05 06:59:05 51°17.623 2°52.531 11.1 339 8 102130 32
2010-05-05 06:59:09 51°17.639 2°52.529 10.4 283 8 102130 33
2010-05-05 06:59:14 51°17.658 2°52.529 10.8 338 8 102130 33
2010-05-05 06:59:19 51°17.678 2°52.529 9.5 285 8 102130 32
2010-05-05 06:59:24 51°17.697 2°52.53 10 338 8 102130 32
2010-05-05 06:59:29 51°17.716 2°52.532 9.9 284 8 102130 32
2010-05-05 06:59:34 51°17.735 2°52.535 11 338 8 102130 32
2010-05-05 06:59:39 51°17.754 2°52.538 9.6 286 8.1 102140 33
2010-05-05 06:59:44 51°17.774 2°52.541 10.6 339 8.1 102140 33
2010-05-05 06:59:49 51°17.793 2°52.545 10.4 280 8.1 102140 33
2010-05-05 06:59:54 51°17.812 2°52.549 10.8 337 8.1 102140 33
2010-05-05 06:59:59 51°17.831 2°52.554 11.4 337 8.1 102130 33
2010-05-05 07:00:04 51°17.851 2°52.558 10.2 337 8.1 102130 33
2010-05-05 07:00:09 51°17.87 2°52.562 11.8 287 8.1 102130 33
2010-05-05 07:00:14 51°17.889 2°52.566 10.6 336 8.1 102130 33
2010-05-05 07:00:19 51°17.909 2°52.571 9.9 279 8.1 102130 33
2010-05-05 07:00:24 51°17.928 2°52.574 10.6 338 8.1 102130 33
2010-05-05 07:00:29 51°17.948 2°52.579 10.6 286 8.2 102120 32
2010-05-05 07:00:34 51°17.967 2°52.584 10.3 337 8.1 102130 33
2010-05-05 07:00:39 51°17.986 2°52.591 10.5 284 8.1 102130 33
2010-05-05 07:00:44 51°18.005 2°52.598 10.8 334 8.1 102140 32
2010-05-05 07:00:49 51°18.024 2°52.606 10 285 8.1 102140 32
2010-05-05 07:00:54 51°18.043 2°52.615 10.7 332 8.1 102140 32
2010-05-05 07:00:59 51°18.061 2°52.625 10.1 281 8.1 102140 32
2010-05-05 07:01:04 51°18.08 2°52.635 11.5 331 8.1 102140 32
2010-05-05 07:01:09 51°18.098 2°52.646 10.6 281 8.1 102120 32
2010-05-05 07:01:14 51°18.116 2°52.659 10.8 331 8.1 102120 32
2010-05-05 07:01:19 51°18.134 2°52.671 10.6 282 8.1 102130 32
2010-05-05 07:01:25 51°18.155 2°52.688 11 330 8.1 102130 32
2010-05-05 07:01:29 51°18.17 2°52.698 10.9 279 8.1 102130 33
2010-05-05 07:01:34 51°18.187 2°52.713 11.5 329 8.1 102130 33
2010-05-05 07:01:39 51°18.205 2°52.726 10.7 282 8.1 102130 32
2010-05-05 07:01:44 51°18.222 2°52.742 11.1 330 8.1 102130 33
2010-05-05 07:01:49 51°18.24 2°52.756 11.6 282 8.1 102130 33
2010-05-05 07:01:54 51°18.257 2°52.771 11.8 330 8.1 102130 33
2010-05-05 07:01:59 51°18.274 2°52.786 10.6 329 8.1 102130 32
2010-05-05 07:02:04 51°18.292 2°52.801 10.8 329 8.1 102130 32
2010-05-05 07:02:09 51°18.309 2°52.815 10.1 285 8.1 102130 32
2010-05-05 07:02:14 51°18.327 2°52.828 10.9 332 8.1 102130 32
2010-05-05 07:02:19 51°18.345 2°52.84 12 279 8.1 102130 33
2010-05-05 07:02:24 51°18.363 2°52.851 10.4 336 8.1 102130 33
2010-05-05 07:02:29 51°18.382 2°52.86 11 285 8.1 102130 32
2010-05-05 07:02:34 51°18.4 2°52.869 11.1 337 8.1 102150 32
2010-05-05 07:02:39 51°18.419 2°52.877 10.4 282 8.1 102150 32
2010-05-05 07:02:44 51°18.438 2°52.885 10.8 336 8.1 102150 32
2010-05-05 07:02:49 51°18.456 2°52.892 10.7 284 8.1 102130 33
2010-05-05 07:02:54 51°18.475 2°52.899 10.3 336 8.1 102130 32
2010-05-05 07:02:59 51°18.494 2°52.905 10.7 284 8.1 102130 32
2010-05-05 07:03:04 51°18.513 2°52.911 11.1 338 8.1 102130 32
2010-05-05 07:03:09 51°18.532 2°52.916 11.8 286 8.1 102120 33
2010-05-05 07:03:14 51°18.551 2°52.922 10.7 340 8.1 102120 33
2010-05-05 07:03:19 51°18.57 2°52.927 9.7 280 8.1 102140 32
2010-05-05 07:03:24 51°18.589 2°52.932 9.6 338 8.1 102140 32
2010-05-05 07:03:29 51°18.609 2°52.936 10.4 282 8.2 102140 32
2010-05-05 07:03:34 51°18.628 2°52.94 10.4 339 8.2 102140 32
2010-05-05 07:03:39 51°18.647 2°52.943 10.8 281 8.1 102130 32
2010-05-05 07:03:44 51°18.666 2°52.946 9.8 339 8.2 102140 32
2010-05-05 07:03:49 51°18.686 2°52.949 10.2 282 8.2 102140 32
2010-05-05 07:03:54 51°18.705 2°52.952 11.1 337 8.2 102140 32
2010-05-05 07:03:59 51°18.724 2°52.954 10.2 338 8.2 102140 32
2010-05-05 07:04:04 51°18.744 2°52.957 10.6 338 8.2 102140 32
2010-05-05 07:04:09 51°18.763 2°52.959 10.6 278 8.1 102130 33
2010-05-05 07:04:14 51°18.782 2°52.962 10.1 338 8.1 102130 33
2010-05-05 07:04:19 51°18.802 2°52.965 10.7 280 8.2 102140 32
2010-05-05 07:04:24 51°18.821 2°52.968 10.5 337 8.2 102140 32
2010-05-05 07:04:29 51°18.841 2°52.971 10.5 283 8.2 102150 33
2010-05-05 07:04:34 51°18.86 2°52.974 10.6 340 8.2 102130 32
2010-05-05 07:04:39 51°18.88 2°52.976 10.6 284 8.2 102130 32
2010-05-05 07:04:44 51°18.899 2°52.979 10.7 338 8.2 102130 32
2010-05-05 07:04:49 51°18.918 2°52.982 10.7 279 8.2 102130 32
2010-05-05 07:04:54 51°18.938 2°52.985 10.6 336 8.2 102140 33
2010-05-05 07:04:59 51°18.957 2°52.987 10.3 336 8.2 102140 33
2010-05-05 07:05:04 51°18.977 2°52.99 11.1 338 8.2 102140 33
2010-05-05 07:05:09 51°18.996 2°52.992 10.9 282 8.2 102130 33
2010-05-05 07:05:14 51°19.015 2°52.995 10.8 337 8.2 102130 33
2010-05-05 07:05:19 51°19.035 2°52.998 10.8 283 8.2 102130 33
2010-05-05 07:05:24 51°19.054 2°53.001 10.8 337 8.2 102140 33
2010-05-05 07:05:29 51°19.074 2°53.004 11.3 280 8.2 102140 33
2010-05-05 07:05:34 51°19.093 2°53.007 10.6 339 8.2 102140 33
2010-05-05 07:05:39 51°19.113 2°53.01 11 283 8.2 102140 32
2010-05-05 07:05:44 51°19.132 2°53.013 10.6 337 8.2 102140 32
2010-05-05 07:05:49 51°19.152 2°53.016 10.3 282 8.2 102130 33
2010-05-05 07:05:54 51°19.171 2°53.018 11.3 337 8.2 102130 33
2010-05-05 07:05:59 51°19.191 2°53.021 10.6 338 8.2 102140 33
2010-05-05 07:06:04 51°19.21 2°53.024 11 339 8.2 102130 33
2010-05-05 07:06:09 51°19.229 2°53.027 11.1 282 8.2 102130 33
2010-05-05 07:06:14 51°19.249 2°53.03 10.3 339 8.2 102130 33
2010-05-05 07:06:19 51°19.268 2°53.032 11.2 287 8.2 102130 32
2010-05-05 07:06:24 51°19.288 2°53.035 11.2 339 8.1 102140 32
2010-05-05 07:06:29 51°19.307 2°53.038 9.9 284 8.1 102140 32
2010-05-05 07:06:34 51°19.326 2°53.041 10.1 339 8.1 102130 32
2010-05-05 07:06:39 51°19.346 2°53.044 10.2 283 8.1 102130 32
2010-05-05 07:06:44 51°19.365 2°53.047 10.6 337 8.1 102130 32
2010-05-05 07:06:49 51°19.385 2°53.05 10.6 281 8.1 102130 32
2010-05-05 07:06:54 51°19.404 2°53.054 11 339 8.2 102130 33
2010-05-05 07:06:59 51°19.424 2°53.057 11 339 8.2 102130 33
2010-05-05 07:07:04 51°19.443 2°53.06 10.5 337 8.2 102130 33
2010-05-05 07:07:09 51°19.462 2°53.063 10.4 282 8.2 102130 33
2010-05-05 07:07:14 51°19.482 2°53.066 9.5 338 8.2 102130 33
2010-05-05 07:07:19 51°19.501 2°53.069 11.2 286 8.2 102130 32
2010-05-05 07:07:24 51°19.52 2°53.071 10.5 338 8.2 102130 32
2010-05-05 07:07:29 51°19.539 2°53.075 10.4 281 8.2 102130 32
2010-05-05 07:07:34 51°19.559 2°53.078 10.7 338 8.2 102130 32
2010-05-05 07:07:39 51°19.578 2°53.081 10.4 286 8.2 102130 33
2010-05-05 07:07:44 51°19.597 2°53.084 11.3 336 8.2 102140 32
2010-05-05 07:07:49 51°19.617 2°53.087 11.3 282 8.2 102140 32
2010-05-05 07:07:54 51°19.636 2°53.09 10.4 338 8.2 102140 32
2010-05-05 07:07:59 51°19.655 2°53.093 11.6 -999 8.2 102120 33
2010-05-05 07:08:04 51°19.674 2°53.096 10.5 334 8.2 102120 33
2010-05-05 07:08:09 51°19.694 2°53.099 11.7 280 8.2 102130 32
2010-05-05 07:08:14 51°19.713 2°53.102 10.5 337 8.2 102130 32
2010-05-05 07:08:19 51°19.732 2°53.105 11.2 281 8.2 102130 33
2010-05-05 07:08:25 51°19.755 2°53.109 10.7 337 8.2 102130 33
2010-05-05 07:08:29 51°19.771 2°53.111 10.8 281 8.2 102130 32
2010-05-05 07:08:34 51°19.79 2°53.114 10.7 337 8.2 102130 32
2010-05-05 07:08:39 51°19.809 2°53.117 11.2 283 8.2 102130 33
2010-05-05 07:08:44 51°19.829 2°53.12 10.7 338 8.2 102130 33
2010-05-05 07:08:49 51°19.848 2°53.122 11 287 8.2 102130 33
2010-05-05 07:08:54 51°19.867 2°53.125 10.7 336 8.2 102120 33
2010-05-05 07:08:59 51°19.886 2°53.128 11.9 339 8.2 102120 33
2010-05-05 07:09:04 51°19.905 2°53.131 10 338 8.2 102120 33
2010-05-05 07:09:09 51°19.925 2°53.133 10.7 284 8.1 102120 32
2010-05-05 07:09:14 51°19.944 2°53.135 11 339 8.1 102120 32
2010-05-05 07:09:19 51°19.963 2°53.138 9.9 281 8.1 102130 31
2010-05-05 07:09:24 51°19.982 2°53.14 10 339 8.1 102130 31
2010-05-05 07:09:29 51°20.001 2°53.143 10.8 286 8.1 102130 32
2010-05-05 07:09:34 51°20.021 2°53.146 10.3 338 8.1 102120 33
2010-05-05 07:09:39 51°20.04 2°53.148 9.9 285 8.1 102120 33
2010-05-05 07:09:44 51°20.059 2°53.151 9.6 337 8.2 102130 32
2010-05-05 07:09:49 51°20.078 2°53.153 10.1 288 8.2 102130 32
2010-05-05 07:09:54 51°20.099 2°53.157 10.3 338 8.1 102120 32
2010-05-05 07:09:59 51°20.117 2°53.159 11.4 280 8.1 102120 32
2010-05-05 07:10:04 51°20.136 2°53.161 10.2 340 8.1 102120 32
2010-05-05 07:10:09 51°20.155 2°53.164 10.5 279 8.2 102140 33
2010-05-05 07:10:14 51°20.174 2°53.167 11.5 337 8.2 102140 33
2010-05-05 07:10:19 51°20.193 2°53.169 10.3 287 8.2 102140 32
2010-05-05 07:10:25 51°20.216 2°53.172 11.6 337 8.2 102140 32
2010-05-05 07:10:29 51°20.231 2°53.175 10.4 283 8.2 102120 33
2010-05-05 07:10:34 51°20.25 2°53.177 10 339 8.2 102120 33
2010-05-05 07:10:39 51°20.27 2°53.18 10.9 279 8.2 102130 33
2010-05-05 07:10:44 51°20.29 2°53.18 11 338 8.2 102130 33
2010-05-05 07:10:49 51°20.309 2°53.182 10.6 285 8.2 102130 33
2010-05-05 07:10:54 51°20.328 2°53.181 10.5 339 8.2 102130 33
2010-05-05 07:10:59 51°20.348 2°53.182 10.8 338 8.2 102130 32
2010-05-05 07:11:04 51°20.367 2°53.181 10.4 337 8.2 102120 32
2010-05-05 07:11:09 51°20.387 2°53.181 10.9 287 8.2 102120 32
2010-05-05 07:11:14 51°20.406 2°53.18 10.7 337 8.2 102120 32
2010-05-05 07:11:19 51°20.425 2°53.18 9.8 282 8.2 102120 32
2010-05-05 07:11:24 51°20.445 2°53.179 10.2 335 8.2 102120 32
2010-05-05 07:11:29 51°20.464 2°53.179 10.2 281 8.2 102130 33
2010-05-05 07:11:34 51°20.483 2°53.178 10.9 337 8.2 102140 32
2010-05-05 07:11:39 51°20.502 2°53.177 9.5 286 8.2 102140 32
2010-05-05 07:11:44 51°20.522 2°53.177 10.1 338 8.2 102140 32
2010-05-05 07:11:49 51°20.541 2°53.177 11.3 285 8.2 102120 33
2010-05-05 07:11:54 51°20.56 2°53.176 10.1 337 8.2 102120 32
2010-05-05 07:11:59 51°20.579 2°53.176 9.9 -999 8.2 102120 32
2010-05-05 07:12:04 51°20.598 2°53.175 10.6 337 8.2 102120 32
2010-05-05 07:12:09 51°20.617 2°53.175 10.4 287 8.2 102130 33
2010-05-05 07:12:14 51°20.636 2°53.175 11.3 337 8.2 102130 33
2010-05-05 07:12:19 51°20.655 2°53.174 9.9 286 8.2 102130 32
2010-05-05 07:12:24 51°20.673 2°53.173 10.5 336 8.2 102120 32
2010-05-05 07:12:29 51°20.692 2°53.173 10.7 282 8.2 102120 32
2010-05-05 07:12:34 51°20.712 2°53.172 11.5 340 8.2 102120 32
2010-05-05 07:12:39 51°20.73 2°53.171 11.8 287 8.2 102130 33
2010-05-05 07:12:44 51°20.749 2°53.17 10.6 339 8.1 102140 32
2010-05-05 07:12:49 51°20.769 2°53.169 10.2 280 8.1 102140 32
2010-05-05 07:12:54 51°20.788 2°53.169 11.3 340 8.1 102140 32
2010-05-05 07:12:59 51°20.807 2°53.168 10.8 338 8.1 102120 33
2010-05-05 07:13:04 51°20.826 2°53.168 11.1 338 8.1 102110 33
2010-05-05 07:13:09 51°20.845 2°53.168 11.2 280 8.1 102110 33
2010-05-05 07:13:14 51°20.863 2°53.167 11.4 339 8.1 102110 33
2010-05-05 07:13:19 51°20.882 2°53.168 10.8 286 8.1 102120 32
2010-05-05 07:13:24 51°20.901 2°53.167 10.7 339 8.1 102120 32
2010-05-05 07:13:29 51°20.92 2°53.166 12.3 280 8.1 102130 33
2010-05-05 07:13:34 51°20.939 2°53.166 12.6 338 8.1 102110 32
2010-05-05 07:13:39 51°20.958 2°53.165 10.2 286 8.1 102110 32
2010-05-05 07:13:44 51°20.977 2°53.165 9.7 339 8.1 102110 32
2010-05-05 07:13:49 51°20.996 2°53.164 9.5 285 8.1 102140 33
2010-05-05 07:13:53 51°21.011 2°53.164 10.7 337 8.1 102130 32
2010-05-05 07:13:59 51°21.033 2°53.163 10.4 -999 8.1 102130 32
2010-05-05 07:14:04 51°21.053 2°53.163 10.2 339 8.2 102140 33
2010-05-05 07:14:09 51°21.071 2°53.162 10.7 286 8.2 102140 33
2010-05-05 07:14:14 51°21.09 2°53.162 10.3 339 8.2 102140 32
2010-05-05 07:14:19 51°21.11 2°53.161 9.4 283 8.2 102140 32
2010-05-05 07:14:24 51°21.129 2°53.16 10.3 337 8.2 102140 32
2010-05-05 07:14:29 51°21.148 2°53.16 10.7 285 8.2 102130 32
2010-05-05 07:14:34 51°21.167 2°53.16 10.1 338 8.2 102130 32
2010-05-05 07:14:39 51°21.186 2°53.16 10.2 282 8.2 102130 32
2010-05-05 07:14:44 51°21.205 2°53.16 10.4 339 8.2 102140 33
2010-05-05 07:14:49 51°21.225 2°53.16 10 281 8.2 102140 33
2010-05-05 07:14:54 51°21.244 2°53.159 10.4 338 8.2 102140 33
2010-05-05 07:14:59 51°21.263 2°53.159 10.2 281 8.2 102130 32
2010-05-05 07:15:04 51°21.282 2°53.158 10.6 340 8.2 102130 32
2010-05-05 07:15:09 51°21.301 2°53.158 10.7 285 8.3 102130 33
2010-05-05 07:15:14 51°21.32 2°53.157 9.5 341 8.3 102130 33
2010-05-05 07:15:19 51°21.339 2°53.157 10.4 280 8.2 102120 34
2010-05-05 07:15:24 51°21.358 2°53.157 10.9 339 8.2 102140 33
2010-05-05 07:15:29 51°21.377 2°53.157 10.6 285 8.2 102140 33
2010-05-05 07:15:34 51°21.396 2°53.156 10.6 338 8.2 102140 33
2010-05-05 07:15:39 51°21.415 2°53.156 9.7 282 8.2 102120 33
2010-05-05 07:15:44 51°21.434 2°53.156 10 340 8.2 102120 33
2010-05-05 07:15:49 51°21.453 2°53.156 11 285 8.2 102120 33
2010-05-05 07:15:54 51°21.471 2°53.155 11.4 337 8.2 102120 33
2010-05-05 07:15:59 51°21.49 2°53.155 10.6 336 8.2 102120 33
2010-05-05 07:16:04 51°21.509 2°53.155 11.4 335 8.2 102120 33
2010-05-05 07:16:09 51°21.528 2°53.155 10.5 285 8.2 102120 33
2010-05-05 07:16:14 51°21.547 2°53.155 10.5 336 8.2 102120 33
2010-05-05 07:16:19 51°21.566 2°53.155 10.6 285 8.2 102120 34
2010-05-05 07:16:24 51°21.585 2°53.155 10.3 337 8.2 102120 34
2010-05-05 07:16:29 51°21.605 2°53.155 10.5 280 8.2 102130 33
2010-05-05 07:16:34 51°21.624 2°53.155 10.7 336 8.2 102130 33
2010-05-05 07:16:39 51°21.643 2°53.155 10.4 284 8.2 102130 33
2010-05-05 07:16:44 51°21.663 2°53.155 9.9 337 8.2 102130 33
2010-05-05 07:16:49 51°21.682 2°53.155 10.8 284 8.2 102130 33
2010-05-05 07:16:54 51°21.701 2°53.154 10.6 337 8.2 102130 33
2010-05-05 07:16:59 51°21.72 2°53.155 11.2 284 8.2 102120 32
2010-05-05 07:17:04 51°21.739 2°53.155 10.6 337 8.2 102120 32
2010-05-05 07:17:09 51°21.758 2°53.155 10.4 281 8.2 102120 33
2010-05-05 07:17:14 51°21.777 2°53.156 9.9 335 8.2 102120 33
2010-05-05 07:17:19 51°21.796 2°53.156 10.5 285 8.2 102130 31
2010-05-05 07:17:25 51°21.819 2°53.156 10.9 334 8.2 102130 31
2010-05-05 07:17:29 51°21.834 2°53.156 10.8 282 8.2 102120 33
2010-05-05 07:17:34 51°21.854 2°53.156 11.7 336 8.2 102120 33
2010-05-05 07:17:39 51°21.873 2°53.156 10.7 282 8.2 102130 32
2010-05-05 07:17:44 51°21.892 2°53.156 12 335 8.2 102120 33
2010-05-05 07:17:49 51°21.911 2°53.157 10.4 286 8.2 102120 33
2010-05-05 07:17:54 51°21.93 2°53.157 11.4 335 8.2 102120 34
2010-05-05 07:17:59 51°21.95 2°53.157 10.6 335 8.2 102120 34
2010-05-05 07:18:04 51°21.969 2°53.157 10.3 338 8.2 102120 34
2010-05-05 07:18:09 51°21.988 2°53.157 11.4 282 8.2 102120 33
2010-05-05 07:18:14 51°22.007 2°53.158 10.2 338 8.2 102120 33
2010-05-05 07:18:19 51°22.026 2°53.158 10.8 281 8.2 102130 33
2010-05-05 07:18:24 51°22.045 2°53.158 10.4 337 8.2 102130 33
2010-05-05 07:18:29 51°22.064 2°53.158 12.1 285 8.2 102120 33
2010-05-05 07:18:34 51°22.083 2°53.158 11.2 338 8.2 102140 34
2010-05-05 07:18:39 51°22.102 2°53.159 11.1 286 8.2 102140 34
2010-05-05 07:18:44 51°22.121 2°53.158 11.9 338 8.2 102120 33
2010-05-05 07:18:49 51°22.14 2°53.159 10.9 283 8.2 102120 33
2010-05-05 07:18:54 51°22.159 2°53.158 11.3 337 8.2 102120 33
2010-05-05 07:18:59 51°22.178 2°53.16 11.5 285 8.2 102130 34
2010-05-05 07:19:04 51°22.197 2°53.16 11 338 8.2 102130 34
2010-05-05 07:19:09 51°22.216 2°53.16 12.1 286 8.2 102120 33
2010-05-05 07:19:14 51°22.235 2°53.16 11.1 338 8.2 102120 33
2010-05-05 07:19:19 51°22.254 2°53.16 11.2 282 8.2 102130 33
2010-05-05 07:19:24 51°22.273 2°53.16 10.9 338 8.2 102130 33
2010-05-05 07:19:29 51°22.292 2°53.159 11.1 283 8.2 102130 33
2010-05-05 07:19:34 51°22.311 2°53.16 12.2 338 8.2 102130 33
2010-05-05 07:19:39 51°22.331 2°53.161 10.9 282 8.1 102110 33
2010-05-05 07:19:44 51°22.35 2°53.161 10.7 339 8.1 102110 33
2010-05-05 07:19:49 51°22.369 2°53.162 11.1 285 8.1 102110 33
2010-05-05 07:19:54 51°22.388 2°53.161 11 339 8.1 102110 33
2010-05-05 07:19:59 51°22.407 2°53.161 11.5 339 8.1 102120 32
2010-05-05 07:20:04 51°22.426 2°53.161 10.3 337 8.1 102120 32
2010-05-05 07:20:09 51°22.445 2°53.161 9.6 286 8.1 102120 33
2010-05-05 07:20:14 51°22.464 2°53.161 10.5 337 8.1 102120 33
2010-05-05 07:20:19 51°22.484 2°53.161 11.5 282 8.1 102120 33
2010-05-05 07:20:24 51°22.503 2°53.161 10.7 335 8.1 102120 33
2010-05-05 07:20:29 51°22.522 2°53.161 10.8 281 8.1 102120 33
2010-05-05 07:20:34 51°22.542 2°53.162 11.2 337 8.1 102120 33
2010-05-05 07:20:39 51°22.561 2°53.161 11.1 281 8.1 102120 33
2010-05-05 07:20:44 51°22.58 2°53.161 10.7 337 8.1 102120 33
2010-05-05 07:20:49 51°22.599 2°53.161 11.6 279 8.2 102130 33
2010-05-05 07:20:54 51°22.619 2°53.16 10.7 338 8.1 102120 33
2010-05-05 07:20:59 51°22.638 2°53.16 11.5 281 8.1 102120 33
2010-05-05 07:21:04 51°22.657 2°53.159 11.1 337 8.1 102120 33
2010-05-05 07:21:09 51°22.676 2°53.159 10.2 279 8.1 102130 33
2010-05-05 07:21:14 51°22.696 2°53.159 10.9 336 8.1 102120 33
2010-05-05 07:21:19 51°22.715 2°53.159 11.5 283 8.1 102120 33
2010-05-05 07:21:24 51°22.734 2°53.159 11.3 337 8.1 102120 33
2010-05-05 07:21:29 51°22.754 2°53.158 10.9 282 8.1 102120 33
2010-05-05 07:21:34 51°22.773 2°53.158 11.2 336 8.1 102120 33
2010-05-05 07:21:39 51°22.792 2°53.158 10.8 285 8.2 102120 33
2010-05-05 07:21:44 51°22.812 2°53.157 10.6 335 8.1 102110 33
2010-05-05 07:21:49 51°22.831 2°53.158 11.1 281 8.1 102110 33
2010-05-05 07:21:54 51°22.851 2°53.157 10.4 337 8.1 102110 33
2010-05-05 07:21:59 51°22.87 2°53.157 11.3 335 8.1 102120 32
2010-05-05 07:22:04 51°22.889 2°53.157 11 339 8.1 102120 32
2010-05-05 07:22:09 51°22.908 2°53.156 10.8 284 8.1 102110 33
2010-05-05 07:22:14 51°22.929 2°53.154 10.4 338 8.1 102110 33
2010-05-05 07:22:19 51°22.948 2°53.154 9.5 280 8.1 102110 33
2010-05-05 07:22:24 51°22.967 2°53.154 11.2 340 8.1 102110 33
2010-05-05 07:22:29 51°22.986 2°53.153 10.8 287 8.2 102120 33
2010-05-05 07:22:34 51°23.005 2°53.154 11.1 337 8.2 102120 33
2010-05-05 07:22:39 51°23.024 2°53.154 11.1 284 8.2 102130 33
2010-05-05 07:22:44 51°23.043 2°53.154 11 339 8.2 102130 33
2010-05-05 07:22:49 51°23.062 2°53.154 11 280 8.2 102120 34
2010-05-05 07:22:54 51°23.081 2°53.154 10.9 337 8.2 102130 33
2010-05-05 07:22:59 51°23.101 2°53.154 10.8 338 8.2 102130 33
2010-05-05 07:23:04 51°23.12 2°53.154 11.6 337 8.2 102120 34
2010-05-05 07:23:09 51°23.139 2°53.154 10.6 282 8.2 102120 34
2010-05-05 07:23:14 51°23.158 2°53.154 11 336 8.2 102110 33
2010-05-05 07:23:19 51°23.178 2°53.154 11 280 8.2 102110 33
2010-05-05 07:23:24 51°23.197 2°53.154 11 336 8.2 102110 33
2010-05-05 07:23:29 51°23.216 2°53.154 10.9 284 8.2 102110 33
2010-05-05 07:23:34 51°23.235 2°53.156 10.9 337 8.2 102110 33
2010-05-05 07:23:39 51°23.255 2°53.155 11.8 283 8.2 102130 33
2010-05-05 07:23:44 51°23.274 2°53.156 10.9 335 8.2 102120 34
2010-05-05 07:23:49 51°23.293 2°53.155 10.7 287 8.2 102120 34
2010-05-05 07:23:54 51°23.313 2°53.155 10.6 335 8.2 102120 34
2010-05-05 07:23:59 51°23.332 2°53.155 11.4 337 8.2 102110 34
2010-05-05 07:24:04 51°23.351 2°53.155 10.9 337 8.2 102110 34
2010-05-05 07:24:09 51°23.371 2°53.155 11.2 280 8.2 102110 33
2010-05-05 07:24:14 51°23.39 2°53.155 11.6 338 8.2 102110 33
2010-05-05 07:24:19 51°23.409 2°53.155 11 284 8.2 102120 33
2010-05-05 07:24:24 51°23.429 2°53.152 10.5 335 8.2 102120 33
2010-05-05 07:24:29 51°23.448 2°53.152 10.2 280 8.2 102110 34
2010-05-05 07:24:34 51°23.468 2°53.153 12.1 335 8.2 102110 34
2010-05-05 07:24:39 51°23.487 2°53.153 10.9 285 8.3 102110 33
2010-05-05 07:24:44 51°23.507 2°53.153 10.4 336 8.3 102110 33
2010-05-05 07:24:49 51°23.526 2°53.154 10.9 279 8.3 102120 34
2010-05-05 07:24:54 51°23.545 2°53.154 12.2 337 8.3 102120 34
2010-05-05 07:24:59 51°23.565 2°53.154 10.9 336 8.3 102120 34
2010-05-05 07:25:04 51°23.584 2°53.154 12.1 338 8.3 102120 34
2010-05-05 07:25:09 51°23.604 2°53.154 10.1 282 8.2 102110 33
2010-05-05 07:25:14 51°23.623 2°53.154 10.5 337 8.2 102130 32
2010-05-05 07:25:19 51°23.643 2°53.151 10.9 279 8.2 102130 32
2010-05-05 07:25:24 51°23.662 2°53.151 10.4 338 8.2 102130 32
2010-05-05 07:25:29 51°23.681 2°53.151 11.8 280 8.2 102120 33
2010-05-05 07:25:34 51°23.701 2°53.151 10.5 340 8.2 102120 33
2010-05-05 07:25:39 51°23.72 2°53.151 12.5 285 8.2 102110 34
2010-05-05 07:25:44 51°23.74 2°53.152 10.6 336 8.2 102110 33
2010-05-05 07:25:49 51°23.759 2°53.151 10.4 280 8.2 102110 33
2010-05-05 07:25:54 51°23.779 2°53.152 11.2 340 8.2 102110 33
2010-05-05 07:25:59 51°23.799 2°53.152 11.2 -999 8.2 102120 33
2010-05-05 07:26:04 51°23.818 2°53.152 10.9 339 8.2 102120 33
2010-05-05 07:26:09 51°23.837 2°53.152 10.8 282 8.2 102110 33
2010-05-05 07:26:14 51°23.857 2°53.152 11 336 8.2 102110 33
2010-05-05 07:26:19 51°23.876 2°53.152 11.2 281 8.2 102120 33
2010-05-05 07:26:25 51°23.9 2°53.151 12.3 337 8.2 102120 33
2010-05-05 07:26:29 51°23.915 2°53.151 11.3 281 8.2 102130 34
2010-05-05 07:26:34 51°23.934 2°53.151 10.7 339 8.2 102130 34
2010-05-05 07:26:39 51°23.954 2°53.151 11 282 8.2 102110 33
2010-05-05 07:26:44 51°23.973 2°53.15 10.2 337 8.2 102120 34
2010-05-05 07:26:49 51°23.993 2°53.15 10.5 282 8.2 102120 34
2010-05-05 07:26:54 51°24.012 2°53.147 11.6 338 8.2 102120 33
2010-05-05 07:26:59 51°24.031 2°53.146 11 338 8.2 102120 33
2010-05-05 07:27:04 51°24.051 2°53.146 10.4 338 8.2 102120 33
2010-05-05 07:27:09 51°24.07 2°53.146 10.4 279 8.2 102120 33
2010-05-05 07:27:14 51°24.09 2°53.146 10.8 338 8.2 102120 33
2010-05-05 07:27:19 51°24.11 2°53.145 10.5 283 8.2 102120 34
2010-05-05 07:27:24 51°24.129 2°53.145 10.5 336 8.2 102120 34
2010-05-05 07:27:29 51°24.148 2°53.145 10.9 284 8.2 102120 34
2010-05-05 07:27:34 51°24.168 2°53.144 11.9 336 8.2 102130 34
2010-05-05 07:27:39 51°24.187 2°53.144 10.4 284 8.2 102130 34
2010-05-05 07:27:44 51°24.207 2°53.144 10.6 337 8.2 102120 33
2010-05-05 07:27:49 51°24.227 2°53.144 11.5 283 8.2 102120 33
2010-05-05 07:27:54 51°24.246 2°53.143 11.3 335 8.2 102110 32
2010-05-05 07:27:59 51°24.265 2°53.143 12.1 -999 8.2 102110 32
2010-05-05 07:28:04 51°24.285 2°53.143 12.2 338 8.2 102110 32
2010-05-05 07:28:09 51°24.304 2°53.142 10.9 282 8.2 102110 33
2010-05-05 07:28:14 51°24.324 2°53.142 11.1 338 8.2 102110 33
2010-05-05 07:28:19 51°24.343 2°53.141 11.6 284 8.2 102120 34
2010-05-05 07:28:24 51°24.362 2°53.14 10.2 337 8.2 102100 34
2010-05-05 07:28:29 51°24.381 2°53.14 11.1 286 8.2 102100 34
2010-05-05 07:28:34 51°24.401 2°53.14 10.5 338 8.2 102100 34
2010-05-05 07:28:39 51°24.42 2°53.14 11.7 283 8.2 102120 33
2010-05-05 07:28:44 51°24.44 2°53.139 12.2 339 8.1 102120 33
2010-05-05 07:28:49 51°24.459 2°53.139 11.5 287 8.1 102120 33
2010-05-05 07:28:54 51°24.478 2°53.139 10.9 339 8.1 102130 33
2010-05-05 07:28:59 51°24.498 2°53.138 12 338 8.1 102130 33
2010-05-05 07:29:04 51°24.517 2°53.137 10.9 337 8.1 102130 33
2010-05-05 07:29:09 51°24.536 2°53.136 11.1 286 8.1 102120 34
2010-05-05 07:29:14 51°24.555 2°53.136 11.3 338 8.1 102120 34
2010-05-05 07:29:19 51°24.575 2°53.135 10.8 281 8.1 102120 34
2010-05-05 07:29:24 51°24.594 2°53.135 11 337 8.1 102120 34
2010-05-05 07:29:29 51°24.613 2°53.133 10.9 286 8.1 102110 33
2010-05-05 07:29:34 51°24.633 2°53.133 11.2 337 8.1 102120 33
2010-05-05 07:29:39 51°24.652 2°53.132 11.3 283 8.1 102120 33
2010-05-05 07:29:44 51°24.671 2°53.132 11.6 336 8.1 102120 33
2010-05-05 07:29:49 51°24.69 2°53.131 11.2 282 8.1 102110 34
2010-05-05 07:29:54 51°24.709 2°53.13 10.5 336 8.1 102110 33
2010-05-05 07:29:59 51°24.729 2°53.129 10.7 -999 8.1 102110 33
2010-05-05 07:30:04 51°24.748 2°53.129 10.5 337 8.1 102130 34
2010-05-05 07:30:09 51°24.767 2°53.128 11.6 282 8.1 102130 34
2010-05-05 07:30:14 51°24.786 2°53.127 11.9 337 8.1 102130 34
2010-05-05 07:30:19 51°24.806 2°53.126 11 280 8.1 102120 34
2010-05-05 07:30:24 51°24.825 2°53.125 10.8 338 8.1 102120 34
2010-05-05 07:30:29 51°24.844 2°53.124 11.5 285 8.1 102130 33
2010-05-05 07:30:34 51°24.864 2°53.123 11.3 341 8.1 102130 33
2010-05-05 07:30:39 51°24.883 2°53.123 12.1 280 8.1 102120 31
2010-05-05 07:30:44 51°24.902 2°53.122 11.5 340 8.1 102110 34
2010-05-05 07:30:49 51°24.921 2°53.121 10.2 279 8.1 102110 34
2010-05-05 07:30:54 51°24.94 2°53.12 10.2 341 8.1 102110 34
2010-05-05 07:30:59 51°24.959 2°53.118 11 279 8.1 102110 33
2010-05-05 07:31:04 51°24.978 2°53.117 11.2 340 8.1 102120 33
2010-05-05 07:31:09 51°24.998 2°53.116 10.2 285 8.1 102120 33
2010-05-05 07:31:14 51°25.017 2°53.115 10.7 337 8.1 102120 33
2010-05-05 07:31:19 51°25.036 2°53.114 10.8 282 8.1 102130 34
2010-05-05 07:31:24 51°25.055 2°53.114 10.9 337 8.1 102130 34
2010-05-05 07:31:29 51°25.075 2°53.114 9.4 286 8.1 102120 34
2010-05-05 07:31:34 51°25.094 2°53.113 10.3 339 8.1 102120 34
2010-05-05 07:31:39 51°25.113 2°53.112 10.7 283 8.1 102120 33
2010-05-05 07:31:44 51°25.132 2°53.111 10.4 337 8.1 102120 33
2010-05-05 07:31:49 51°25.151 2°53.109 11.3 287 8.1 102130 34
2010-05-05 07:31:54 51°25.171 2°53.109 10.7 341 8.1 102130 33
2010-05-05 07:31:59 51°25.19 2°53.108 10.8 339 8.1 102130 33
2010-05-05 07:32:04 51°25.209 2°53.107 10 341 8.1 102130 33
2010-05-05 07:32:09 51°25.228 2°53.106 10 284 8.1 102130 33
2010-05-05 07:32:14 51°25.247 2°53.105 11.2 339 8.1 102110 33
2010-05-05 07:32:19 51°25.266 2°53.103 10.8 282 8.1 102110 33
2010-05-05 07:32:24 51°25.286 2°53.102 10.8 339 8.1 102110 33
2010-05-05 07:32:29 51°25.305 2°53.101 9.9 279 8.1 102130 33
2010-05-05 07:32:34 51°25.324 2°53.1 10.7 340 8.1 102130 33
2010-05-05 07:32:39 51°25.343 2°53.099 10.3 279 8.1 102120 34
2010-05-05 07:32:44 51°25.362 2°53.099 12 339 8.1 102130 33
2010-05-05 07:32:49 51°25.381 2°53.097 11.5 283 8.1 102130 33
2010-05-05 07:32:54 51°25.4 2°53.097 11.1 339 8.1 102130 33
2010-05-05 07:32:59 51°25.419 2°53.095 11.4 283 8.1 102120 33
2010-05-05 07:33:04 51°25.438 2°53.094 11.3 339 8.1 102120 33
2010-05-05 07:33:09 51°25.458 2°53.094 10.7 285 8.1 102110 33
2010-05-05 07:33:14 51°25.477 2°53.093 10.6 339 8.1 102110 33
2010-05-05 07:33:19 51°25.496 2°53.092 10.6 287 8.1 102120 33
2010-05-05 07:33:24 51°25.515 2°53.091 11.2 340 8.1 102120 33
2010-05-05 07:33:29 51°25.534 2°53.089 10.6 281 8.1 102130 33
2010-05-05 07:33:34 51°25.553 2°53.088 10.5 334 8.1 102130 33
2010-05-05 07:33:39 51°25.572 2°53.088 11.2 286 8.1 102110 33
2010-05-05 07:33:44 51°25.592 2°53.086 10.7 337 8.1 102110 33
2010-05-05 07:33:49 51°25.611 2°53.085 10.7 283 8.1 102130 33
2010-05-05 07:33:54 51°25.631 2°53.084 10.6 338 8.1 102130 34
2010-05-05 07:33:59 51°25.65 2°53.084 11 338 8.1 102130 34
2010-05-05 07:34:04 51°25.669 2°53.083 11 338 8.1 102120 34
2010-05-05 07:34:09 51°25.688 2°53.082 10.9 286 8.1 102120 34
2010-05-05 07:34:14 51°25.708 2°53.082 10.6 337 8.1 102120 34
2010-05-05 07:34:19 51°25.727 2°53.081 10.7 285 8.1 102120 34
2010-05-05 07:34:24 51°25.746 2°53.08 10.5 340 8.1 102120 34
2010-05-05 07:34:29 51°25.765 2°53.079 11.6 280 8.1 102130 34
2010-05-05 07:34:34 51°25.785 2°53.078 10.8 339 8.1 102130 34
2010-05-05 07:34:39 51°25.804 2°53.077 12.1 284 8.1 102110 33
2010-05-05 07:34:44 51°25.823 2°53.076 10.8 339 8.1 102130 33
2010-05-05 07:34:49 51°25.842 2°53.076 11 281 8.1 102130 33
2010-05-05 07:34:54 51°25.862 2°53.075 10.9 339 8.1 102130 33
2010-05-05 07:34:59 51°25.881 2°53.074 10.5 287 8.1 102120 33
2010-05-05 07:35:04 51°25.9 2°53.073 11.1 340 8.1 102120 33
2010-05-05 07:35:09 51°25.919 2°53.072 10.2 281 8.1 102120 34
2010-05-05 07:35:14 51°25.939 2°53.072 9.6 340 8.1 102120 34
2010-05-05 07:35:19 51°25.958 2°53.071 12 283 8.1 102120 34
2010-05-05 07:35:24 51°25.977 2°53.07 10.6 339 8.1 102120 33
2010-05-05 07:35:29 51°25.996 2°53.069 10.5 281 8.1 102120 33
2010-05-05 07:35:34 51°26.016 2°53.068 10.9 340 8.1 102120 33
2010-05-05 07:35:39 51°26.035 2°53.067 12 284 8.1 102110 33
2010-05-05 07:35:44 51°26.054 2°53.066 11.5 339 8.1 102110 33
2010-05-05 07:35:49 51°26.073 2°53.065 12.1 282 8.1 102110 33
2010-05-05 07:35:54 51°26.093 2°53.064 10.4 342 8.1 102130 33
2010-05-05 07:35:59 51°26.112 2°53.064 11.9 -999 8.1 102130 33
2010-05-05 07:36:04 51°26.131 2°53.065 11 338 8.1 102130 33
2010-05-05 07:36:09 51°26.15 2°53.067 10.6 282 8.1 102130 33
2010-05-05 07:36:14 51°26.17 2°53.069 11 337 8.1 102130 33
2010-05-05 07:36:19 51°26.189 2°53.072 10.9 282 8.1 102130 33
2010-05-05 07:36:24 51°26.208 2°53.075 10.5 337 8.1 102130 33
2010-05-05 07:36:29 51°26.227 2°53.079 10.8 283 8.2 102120 34
2010-05-05 07:36:34 51°26.246 2°53.082 10.9 333 8.2 102130 33
2010-05-05 07:36:39 51°26.265 2°53.087 12 281 8.2 102130 33
2010-05-05 07:36:44 51°26.284 2°53.091 10.5 335 8.2 102120 33
2010-05-05 07:36:49 51°26.304 2°53.096 10.8 283 8.2 102120 33
2010-05-05 07:36:54 51°26.323 2°53.101 11 334 8.2 102120 33
2010-05-05 07:36:59 51°26.342 2°53.106 10.7 284 8.2 102130 34
2010-05-05 07:37:04 51°26.361 2°53.111 11.4 333 8.2 102130 34
2010-05-05 07:37:09 51°26.38 2°53.115 11.4 286 8.2 102120 33
2010-05-05 07:37:14 51°26.398 2°53.121 11.7 335 8.2 102120 33
2010-05-05 07:37:18 51°26.414 2°53.124 11.3 284 8.2 102120 33
2010-05-05 07:37:24 51°26.437 2°53.13 11.9 336 8.2 102120 33
2010-05-05 07:37:29 51°26.456 2°53.134 10.7 283 8.2 102120 33
2010-05-05 07:37:34 51°26.475 2°53.139 10.9 335 8.2 102120 33
2010-05-05 07:37:39 51°26.494 2°53.144 10.8 287 8.2 102130 34
2010-05-05 07:37:44 51°26.513 2°53.149 10.2 337 8.2 102110 33
2010-05-05 07:37:49 51°26.532 2°53.153 10.6 284 8.2 102110 33
2010-05-05 07:37:54 51°26.551 2°53.157 11.2 336 8.2 102110 33
2010-05-05 07:37:59 51°26.57 2°53.162 10.1 -999 8.2 102130 33
2010-05-05 07:38:04 51°26.589 2°53.166 10.1 335 8.2 102130 33
2010-05-05 07:38:09 51°26.608 2°53.171 10.9 279 8.2 102120 34
2010-05-05 07:38:14 51°26.627 2°53.174 10.8 336 8.2 102120 34
2010-05-05 07:38:19 51°26.646 2°53.179 10.8 286 8.2 102130 33
2010-05-05 07:38:24 51°26.665 2°53.183 11.8 335 8.2 102130 33
2010-05-05 07:38:29 51°26.684 2°53.188 10.7 284 8.2 102120 34
2010-05-05 07:38:34 51°26.703 2°53.192 10.5 334 8.2 102120 34
2010-05-05 07:38:39 51°26.722 2°53.196 10.9 282 8.2 102130 33
2010-05-05 07:38:44 51°26.741 2°53.201 10.7 335 8.2 102130 33
2010-05-05 07:38:49 51°26.76 2°53.205 10.5 286 8.2 102120 34
2010-05-05 07:38:54 51°26.779 2°53.21 10.8 335 8.2 102120 33
2010-05-05 07:38:59 51°26.799 2°53.214 11.3 279 8.2 102120 33
2010-05-05 07:39:04 51°26.818 2°53.219 11 335 8.2 102130 33
2010-05-05 07:39:09 51°26.837 2°53.223 10.3 284 8.2 102130 33
2010-05-05 07:39:14 51°26.856 2°53.227 9.8 332 8.2 102130 33
2010-05-05 07:39:19 51°26.875 2°53.232 10.9 284 8.2 102130 33
2010-05-05 07:39:24 51°26.895 2°53.235 11.8 334 8.2 102130 33
2010-05-05 07:39:29 51°26.914 2°53.24 11.2 280 8.3 102120 34
2010-05-05 07:39:34 51°26.933 2°53.244 11.9 335 8.3 102120 34
2010-05-05 07:39:39 51°26.952 2°53.248 12.3 284 8.2 102130 33
2010-05-05 07:39:44 51°26.971 2°53.253 11.5 335 8.2 102120 33
2010-05-05 07:39:49 51°26.991 2°53.257 10.9 285 8.2 102120 33
2010-05-05 07:39:54 51°27.01 2°53.261 11 334 8.2 102120 33
2010-05-05 07:39:59 51°27.029 2°53.265 10.6 -999 8.2 102120 32
2010-05-05 07:40:04 51°27.048 2°53.269 10.7 336 8.2 102130 33
2010-05-05 07:40:09 51°27.067 2°53.273 10.5 283 8.2 102130 33
2010-05-05 07:40:14 51°27.086 2°53.277 10.6 335 8.2 102130 33
2010-05-05 07:40:19 51°27.105 2°53.282 10.4 285 8.2 102120 33
2010-05-05 07:40:24 51°27.125 2°53.286 10.7 335 8.2 102120 33
2010-05-05 07:40:29 51°27.144 2°53.29 11 287 8.2 102110 34
2010-05-05 07:40:34 51°27.163 2°53.295 10.6 335 8.2 102110 34
2010-05-05 07:40:39 51°27.182 2°53.299 12.4 281 8.2 102130 32
2010-05-05 07:40:44 51°27.201 2°53.303 10.5 334 8.2 102130 32
2010-05-05 07:40:49 51°27.221 2°53.308 10.9 279 8.2 102120 33
2010-05-05 07:40:54 51°27.24 2°53.313 10.3 335 8.2 102120 34
2010-05-05 07:40:59 51°27.259 2°53.317 10.9 334 8.2 102120 34
2010-05-05 07:41:04 51°27.279 2°53.322 10.9 336 8.2 102120 34
2010-05-05 07:41:09 51°27.299 2°53.327 11.6 280 8.2 102130 34
2010-05-05 07:41:14 51°27.318 2°53.331 11.5 335 8.2 102130 32
2010-05-05 07:41:19 51°27.337 2°53.336 11.9 280 8.2 102130 32
2010-05-05 07:41:24 51°27.357 2°53.34 10.6 337 8.2 102130 32
2010-05-05 07:41:29 51°27.376 2°53.345 10.8 280 8.2 102130 33
2010-05-05 07:41:34 51°27.396 2°53.349 10.7 338 8.2 102130 33
2010-05-05 07:41:39 51°27.416 2°53.354 10.4 281 8.2 102120 33
2010-05-05 07:41:44 51°27.435 2°53.359 10.6 338 8.2 102110 34
2010-05-05 07:41:49 51°27.454 2°53.364 10.3 278 8.2 102110 34
2010-05-05 07:41:54 51°27.474 2°53.368 12.6 338 8.2 102110 34
2010-05-05 07:41:59 51°27.494 2°53.373 12.4 -999 8.3 102120 33
2010-05-05 07:42:04 51°27.513 2°53.377 13.7 339 8.3 102120 33
2010-05-05 07:42:09 51°27.533 2°53.382 11.4 285 8.3 102120 33
2010-05-05 07:42:14 51°27.552 2°53.386 11.4 336 8.3 102120 33
2010-05-05 07:42:19 51°27.572 2°53.39 13.3 282 8.3 102120 34
2010-05-05 07:42:24 51°27.591 2°53.394 13.2 340 8.3 102120 33
2010-05-05 07:42:29 51°27.611 2°53.399 13.7 283 8.3 102120 33
2010-05-05 07:42:34 51°27.63 2°53.404 11.1 336 8.3 102120 33
2010-05-05 07:42:39 51°27.65 2°53.408 10.5 288 8.3 102120 33
2010-05-05 07:42:44 51°27.669 2°53.413 10.7 335 8.3 102120 33
2010-05-05 07:42:49 51°27.689 2°53.417 9.8 281 8.3 102120 33
2010-05-05 07:42:54 51°27.708 2°53.421 10.1 336 8.3 102120 33
2010-05-05 07:42:59 51°27.728 2°53.426 10.9 334 8.3 102120 33
2010-05-05 07:43:04 51°27.747 2°53.431 10.2 336 8.3 102120 33
2010-05-05 07:43:09 51°27.767 2°53.436 10.4 285 8.3 102120 34
2010-05-05 07:43:14 51°27.786 2°53.44 10.5 338 8.3 102130 33
2010-05-05 07:43:19 51°27.806 2°53.445 11.2 278 8.3 102130 33
2010-05-05 07:43:24 51°27.825 2°53.45 11.6 336 8.3 102130 33
2010-05-05 07:43:29 51°27.845 2°53.454 10.5 281 8.3 102120 33
2010-05-05 07:43:34 51°27.865 2°53.459 10.8 337 8.3 102120 33
2010-05-05 07:43:39 51°27.884 2°53.463 11 280 8.3 102120 33
2010-05-05 07:43:44 51°27.904 2°53.468 10.7 336 8.3 102120 33
2010-05-05 07:43:49 51°27.923 2°53.472 11.1 285 8.3 102120 34